Regional Weather Roundup
Issued by NWS

Home | Current Version | Previous Version | Graphics & Text | Print | Product List | Glossary On
Versions: 1 2 3 4 5 6 7 8 9 10 11 12 13 14 15 16 17 18 19 20 21 22 23 24 25 26 27 28 29 30 31 32 33 34 35 36 37 38 39 40 41 42 43 44 45 46 47 48 49 50
000
ASUS45 KBOI 261410
RWRID

IDAHO REGIONAL WEATHER ROUNDUP
NATIONAL WEATHER SERVICE BOISE ID
800 AM MDT TUE MAY 26 2015

NOTE: "FAIR" INDICATES FEW OR NO CLOUDS BELOW 12000 FEET
WITH NO SIGNIFICANT WEATHER AND/OR OBSTRUCTIONS TO VISIBILITY

IDZ012-014-261500-
SOUTHWEST IDAHO


CITY           SKY/WX    TMP DP  RH WIND       PRES   REMARKS
BOISE          SUNNY     56  48  74 CALM      29.96R
CALDWELL       SUNNY     54  45  71 S3        29.97R
MOUNTAIN HOME  SUNNY     54  46  75 CALM      29.96R
$$

IDZ016-017-261500-
SOUTHCENTRAL IDAHO


CITY           SKY/WX    TMP DP  RH WIND       PRES   REMARKS
BURLEY         CLOUDY    55  47  74 SW3       29.98R
JEROME         PTSUNNY   54  45  71 SE3       29.99R
TWIN FALLS     PTSUNNY   59  46  62 S7        29.97R
$$

IDZ019>023-261500-
SOUTHEAST IDAHO


CITY           SKY/WX    TMP DP  RH WIND       PRES   REMARKS
IDAHO FALLS    PTSUNNY   51  46  83 SW5       30.01R
POCATELLO      PTSUNNY   52  50  93 NW3       30.02R
REXBURG        CLOUDY    51  44  77 S3        30.01R
$$

IDZ006-010-011-018-031-032-261500-
CENTRAL IDAHO MOUNTAINS


CITY           SKY/WX    TMP DP  RH WIND       PRES   REMARKS
MCCALL         SUNNY     43  41  93 CALM      29.99R
HAILEY         MOSUNNY   48  43  81 NW10      30.03R
STANLEY          N/A     38  36  92 CALM      30.08R
SALMON         CLOUDY    48  46  93 S3        30.01S
CHALLIS        SUNNY     47  40  76 CALM      30.03S
$$

IDZ002-004-006-007-026-261500-
NORTHERN IDAHO


CITY           SKY/WX    TMP DP  RH WIND       PRES   REMARKS
LEWISTON       PTSUNNY   57  52  83 CALM      29.95R
LOWELL           N/A     53  49  86 CALM      30.00R
COEUR D`ALENE  PTSUNNY   54  50  87 SW5       29.96R
MULLAN PASS    LGT RAIN  39  39 100 VRB5      30.01S VSB 1/4
$$


USA.gov is the U.S. government's official web portal to all federal, state and local government web resources and services.